Date,TemperatureHighF,TemperatureAvgF,TemperatureLowF,DewpointHighF,DewpointAvgF,DewpointLowF,HumidityHigh,HumidityAvg,HumidityLow,PressureMaxIn,PressureMinIn,WindSpeedMaxMPH,WindSpeedAvgMPH,GustSpeedMaxMPH,PrecipitationSumIn
2013-9-1,87,68,55,62,58,53,94,73,40,29.92,29.81,5,1,8,0.00
2013-9-2,86,69,54,65,59,52,96,75,46,29.92,29.82,5,1,11,0.00
2013-9-3,86,68,54,61,56,52,97,72,37,29.95,29.85,4,0,9,0.00
2013-9-4,88,68,50,61,56,49,97,69,39,29.99,29.86,7,1,9,0.00
2013-9-5,89,70,52,56,52,48,96,60,24,29.96,29.88,7,1,12,0.00
2013-9-6,96,72,51,58,52,49,94,57,21,29.95,29.79,5,1,8,0.00
2013-9-7,99,72,51,56,50,42,91,55,15,29.84,29.75,4,0,10,0.00
2013-9-8,98,69,51,61,54,49,96,65,23,29.85,29.71,3,0,6,0.00
2013-9-9,100,68,50,63,54,48,94,69,28,29.79,29.64,5,0,10,0.00
2013-9-10,74,63,56,61,58,53,94,83,64,29.88,29.70,8,1,8,0.00
2013-9-11,73,65,62,62,60,59,95,86,69,29.97,29.87,4,0,7,0.00
2013-9-12,86,68,58,66,60,55,93,78,49,29.95,29.82,3,0,6,0.00
2013-9-13,88,66,56,62,57,52,96,76,38,29.87,29.70,5,0,6,0.00
2013-9-14,86,64,52,63,56,50,96,78,43,29.79,29.66,3,0,7,0.00
2013-9-15,84,64,49,60,56,47,96,77,44,29.83,29.74,5,1,8,0.00
2013-9-16,90,68,53,62,57,52,97,73,35,29.87,29.70,5,1,8,0.00
2013-9-17,82,66,50,56,52,49,96,65,39,29.85,29.77,10,2,17,0.00
2013-9-18,88,70,57,52,48,41,71,50,21,29.88,29.75,8,1,10,0.00
2013-9-19,93,65,46,52,46,24,94,60,9,29.83,29.70,5,1,9,0.00
2013-9-20,80,60,44,62,54,42,96,81,51,29.80,29.74,12,1,18,0.06
2013-9-21,72,62,53,62,57,51,98,84,51,29.86,29.75,9,1,14,0.28
2013-9-22,80,62,48,57,50,47,98,72,33,29.97,29.86,10,1,10,0.00
2013-9-23,86,66,50,63,56,48,97,72,41,29.99,29.86,5,1,10,0.00
2013-9-24,80,66,54,55,52,48,94,65,33,29.94,29.85,11,2,16,0.00
2013-9-25,75,61,47,50,46,41,95,61,32,29.92,29.79,12,2,17,0.00
2013-9-26,81,62,50,45,42,35,70,50,20,29.97,29.82,6,1,8,0.00
2013-9-27,82,62,44,46,42,32,93,56,17,30.07,29.96,9,1,12,0.00
2013-9-28,84,61,44,55,45,34,90,63,17,30.06,29.95,5,1,8,0.00
2013-9-29,72,62,53,64,58,51,96,89,73,30.06,30.01,4,0,9,0.01
2013-9-30,76,65,53,66,61,47,97,87,65,30.02,29.93,3,0,7,0.01